TimeGMT,TemperatureF,Dew PointF,Humidity,Sea Level PressureIn,VisibilityMPH,Wind Direction,Wind SpeedMPH,Gust SpeedMPH,PrecipitationIn,Events,Conditions,WindDirDegrees,DateUTC
12:00 AM,50,48,90,29.46,12,South,17.9,,,Rain,Light Rain Showers,170,2012-11-22 00:00:00
12:00 AM,50.0,48.2,94,29.44,6.2,South,17.3,-,N/A,Rain,Light Rain Showers,170,2012-11-22 00:00:00
12:30 AM,50.0,48.2,94,29.44,6.2,South,17.3,-,N/A,Rain,Light Rain Showers,190,2012-11-22 00:30:00
1:00 AM,50.0,46.4,87,29.42,6.2,South,18.4,-,N/A,Rain,Light Rain Showers,180,2012-11-22 01:00:00
1:30 AM,50.0,48.2,94,29.39,6.2,South,18.4,-,N/A,,Mostly Cloudy,170,2012-11-22 01:30:00
2:00 AM,50.0,46.4,87,29.39,6.2,South,13.8,-,N/A,Rain,Light Rain Showers,180,2012-11-22 02:00:00
2:30 AM,50.0,48.2,94,29.39,3.7,South,13.8,-,N/A,Rain,Light Rain,190,2012-11-22 02:30:00
3:00 AM,48.2,46.4,93,29.36,6.2,SSW,13.8,-,N/A,Rain,Light Rain,210,2012-11-22 03:00:00
3:30 AM,48.2,44.6,87,29.36,6.2,SSW,12.7,-,N/A,Rain,Light Rain,200,2012-11-22 03:30:00
4:00 AM,46.4,44.6,93,29.36,6.2,South,12.7,-,N/A,Rain,Light Rain,180,2012-11-22 04:00:00
4:30 AM,46.4,44.6,93,29.36,6.2,SW,12.7,-,N/A,,Overcast,220,2012-11-22 04:30:00
5:00 AM,48.2,44.6,87,29.36,6.2,SW,21.9,-,N/A,,Overcast,230,2012-11-22 05:00:00
5:30 AM,46.4,42.8,87,29.36,6.2,SSW,15.0,-,N/A,,Mostly Cloudy,210,2012-11-22 05:30:00
6:00 AM,47,40,71,29.35,12,SSW,15.7,,,Rain,Light Rain,200,2012-11-22 06:00:00
6:00 AM,46.4,41.0,81,29.33,6.2,SSW,15.0,-,N/A,,Overcast,200,2012-11-22 06:00:00
6:30 AM,46.4,41.0,81,29.36,6.2,SSW,13.8,-,N/A,,Overcast,200,2012-11-22 06:30:00
7:00 AM,46.4,41.0,81,29.36,6.2,South,12.7,-,N/A,,Mostly Cloudy,180,2012-11-22 07:00:00
7:30 AM,46.4,41.0,81,29.36,6.2,South,12.7,-,N/A,,Mostly Cloudy,180,2012-11-22 07:30:00
8:00 AM,46.4,41.0,81,29.36,6.2,South,12.7,-,N/A,,Mostly Cloudy,180,2012-11-22 08:00:00
8:30 AM,46.4,41.0,81,29.36,6.2,South,13.8,-,N/A,,Mostly Cloudy,180,2012-11-22 08:30:00
9:00 AM,46.4,41.0,81,29.36,6.2,South,13.8,-,N/A,,Mostly Cloudy,170,2012-11-22 09:00:00
9:30 AM,46.4,39.2,76,29.33,6.2,South,13.8,-,N/A,,Mostly Cloudy,180,2012-11-22 09:30:00
10:00 AM,46.4,37.4,71,29.33,6.2,South,16.1,-,N/A,,Mostly Cloudy,170,2012-11-22 10:00:00
10:30 AM,44.6,39.2,81,29.33,6.2,South,13.8,-,N/A,,Mostly Cloudy,170,2012-11-22 10:30:00
11:00 AM,44.6,39.2,81,29.33,6.2,SSE,18.4,-,N/A,,Mostly Cloudy,160,2012-11-22 11:00:00
11:30 AM,44.6,39.2,81,29.33,6.2,SSE,13.8,-,N/A,,Mostly Cloudy,160,2012-11-22 11:30:00
12:00 PM,46,40,72,29.33,10,South,13.4,,,,Overcast,180,2012-11-22 12:00:00
12:00 PM,46.4,39.2,76,29.33,6.2,South,13.8,-,N/A,,Mostly Cloudy,180,2012-11-22 12:00:00
12:30 PM,46.4,39.2,76,29.30,6.2,SSW,12.7,-,N/A,,Mostly Cloudy,200,2012-11-22 12:30:00
1:00 PM,46.4,37.4,71,29.30,6.2,SSW,13.8,-,N/A,,Mostly Cloudy,200,2012-11-22 13:00:00
1:30 PM,46.4,39.2,76,29.30,6.2,South,13.8,-,N/A,,Mostly Cloudy,190,2012-11-22 13:30:00
2:00 PM,46.4,39.2,76,29.30,6.2,South,16.1,-,N/A,,Mostly Cloudy,180,2012-11-22 14:00:00
2:30 PM,42.8,39.2,87,29.33,6.2,WSW,12.7,-,N/A,Rain,Light Rain Showers,240,2012-11-22 14:30:00
3:00 PM,42.8,41.0,93,29.30,6.2,South,10.4,-,N/A,,Mostly Cloudy,180,2012-11-22 15:00:00
3:30 PM,44.6,41.0,87,29.30,6.2,South,16.1,-,N/A,Rain,Light Rain Showers,190,2012-11-22 15:30:00
4:00 PM,44.6,39.2,81,29.30,6.2,South,16.1,-,N/A,,Scattered Clouds,180,2012-11-22 16:00:00
4:30 PM,44.6,39.2,81,29.30,6.2,South,16.1,-,N/A,,Mostly Cloudy,190,2012-11-22 16:30:00
5:00 PM,44.6,39.2,81,29.30,6.2,SSW,15.0,-,N/A,,Mostly Cloudy,200,2012-11-22 17:00:00
5:30 PM,44.6,39.2,81,29.33,6.2,SW,19.6,32.2,N/A,Rain,Light Rain Showers,220,2012-11-22 17:30:00
6:00 PM,44,40,83,29.36,9,SW,17.9,,,Rain,Light Rain Showers,220,2012-11-22 18:00:00
6:00 PM,42.8,41.0,93,29.36,6.2,SW,17.3,-,N/A,Rain,Light Rain Showers,220,2012-11-22 18:00:00
6:30 PM,44.6,41.0,87,29.36,6.2,SW,15.0,-,N/A,Rain,Light Rain Showers,220,2012-11-22 18:30:00
7:00 PM,44.6,41.0,87,29.39,6.2,SW,16.1,-,N/A,,Mostly Cloudy,220,2012-11-22 19:00:00
7:30 PM,44.6,39.2,81,29.42,6.2,SSW,12.7,-,N/A,,Scattered Clouds,210,2012-11-22 19:30:00
8:00 PM,44.6,41.0,87,29.42,6.2,SW,15.0,-,N/A,,Scattered Clouds,230,2012-11-22 20:00:00
8:30 PM,44.6,41.0,87,29.44,6.2,SW,11.5,-,N/A,,Scattered Clouds,230,2012-11-22 20:30:00
9:00 PM,44.6,41.0,87,29.47,6.2,SW,10.4,-,N/A,,Mostly Cloudy,230,2012-11-22 21:00:00
9:30 PM,44.6,41.0,87,29.47,6.2,West,11.5,-,N/A,,Mostly Cloudy,260,2012-11-22 21:30:00
10:00 PM,44.6,39.2,81,29.50,6.2,WSW,9.2,-,N/A,,Scattered Clouds,240,2012-11-22 22:00:00
10:30 PM,44.6,39.2,81,29.50,6.2,WSW,15.0,-,N/A,,Scattered Clouds,240,2012-11-22 22:30:00
11:00 PM,44.6,39.2,81,29.53,6.2,WSW,11.5,-,N/A,,Scattered Clouds,250,2012-11-22 23:00:00
11:30 PM,44.6,39.2,81,29.53,6.2,WSW,10.4,-,N/A,,Scattered Clouds,250,2012-11-22 23:30:00